Tracking 25193 objects as of 18-Jan-2022
HD Live streaming from Space Station
objects crossing your sky now

STARLINK-1872

Track STARLINK-1872 now!
10-day predictions
STARLINK-1872 is classified as:


NORAD ID: 46742
Int'l Code: 2020-074D
Perigee: 553.0 km
Apogee: 555.8 km
Inclination: 53.1 °
Period: 95.6 minutes
Semi major axis: 6925 km
RCS: Unknown
Launch date: October 24, 2020
Source: United States (US)
Launch site: AIR FORCE EASTERN TEST RANGE (AFETR)
aabbcc
Your satellite tracking list
Your tracking list is empty




NASA's NSSDC Master Catalog

Two Line Element Set (TLE):
1 46742U 20074D   22017.39400334 -.00002704  00000-0 -16273-3 0  9991
2 46742  53.0551 270.5710 0002012  66.0096 294.1103 15.06386440 68739
Source of the keplerian elements: AFSPC